Skip Page Navigation
NASA JPL Caltech
NASA Logo - Jet Propulsion Laboratory + View the NASA Portal
+ Center for Near-Earth Object Studies
JPL Home Earth Solar System Stars & Galaxies Technology
JPL Solar System Dynamics
BODIES ORBITS EPHEMERIDES TOOLS PHYSICAL DATA DISCOVERY FAQ SITE MAP
IMPORTANT: The SSD Announcement email list is now available. Major changes are coming in the near future, including possible hostname and/or URL changes. To be notified of such changes, subscribe to this email list.

Please visit this page for more details.


JPL Small-Body Database Browser
Search: [ help ]  
201155 (2002 KL5)
Classification: Main-belt Asteroid          SPK-ID: 2201155
Ephemeris | Orbit Diagram | Orbital Elements | Mission Design | Physical Parameters | Discovery Circumstances | Close-Approach Data ]

[ show orbit diagram ]
Orbital Elements at Epoch 2458600.5 (2019-Apr-27.0) TDB
Reference: JPL 13 (heliocentric ecliptic J2000)
 Element Value Uncertainty (1-sigma)   Units 
e .1591736410349921 4.3123e-08  
a 2.728196938123558 2.6564e-08 au
q 2.293939898021914 1.1868e-07 au
i 10.51522736087995 5.4373e-06 deg
node 240.258927436892 3.1949e-05 deg
peri 30.57592578795484 3.758e-05 deg
M 255.4995264033145 2.1956e-05 deg
tp 2459078.279773851524
(2020-Aug-16.77977385)
0.00010335 TDB
period 1645.932431372293
4.51
2.4039e-05
6.582e-08
d
yr
n .2187210077025159 3.1945e-09 deg/d
Q 3.162453978225202 3.0792e-08 au
  Orbit Determination Parameters
   # obs. used (total)      253  
   data-arc span      6582 days (18.02 yr)  
   first obs. used      2001-02-20  
   last obs. used      2019-02-28  
   planetary ephem.      DE431  
   SB-pert. ephem.      SB431-N16  
   condition code      0  
   norm. resid. RMS      .6325  
   source      ORB  
   producer      Otto Matic  
   solution date      2019-Jul-13 16:45:47  

Additional Information
 Earth MOID = 1.28447 au 
 Jupiter MOID = 1.93653 au 
 T_jup = 3.313 
[ show covariance matrix ]

Ephemeris | Orbit Diagram | Orbital Elements | Mission Design | Physical Parameters | Discovery Circumstances | Close-Approach Data ]

Physical Parameter Table
Parameter Symbol Value Units Sigma Reference Notes
absolute magnitude H 15.8   n/a MPO433318  

201155 (2002 KL5)          Discovered 2002-May-16 by LINEAR at Socorro
Reference: 20081212/Numbers.arcLast Updated: 2008-12-12

[ show close-approach data ]
Ephemeris | Orbit Diagram | Orbital Elements | Mission Design | Physical Parameters | Discovery Circumstances | Close-Approach Data ]
ABOUT SSD CREDITS/AWARDS PRIVACY/COPYRIGHT GLOSSARY LINKS
FirstGov 2020-Jan-19 16:59 UT
(server date/time)  
NASA Home Page
Site Manager:   Ryan S. Park
Webmaster  Alan B. Chamberlin